TimeCDT,TemperatureF,Dew PointF,Humidity,Sea Level PressureIn,VisibilityMPH,Wind Direction,Wind SpeedMPH,Gust SpeedMPH,PrecipitationIn,Events,Conditions,WindDirDegrees,DateUTC
12:53 AM,46.0,25.0,44,29.74,10.0,SSW,15.0,-,N/A,,Clear,210,2014-03-14 05:53:00
1:53 AM,43.0,25.0,49,29.73,10.0,SSW,12.7,-,N/A,,Clear,200,2014-03-14 06:53:00
2:53 AM,43.0,25.0,49,29.70,10.0,South,12.7,-,N/A,,Clear,190,2014-03-14 07:53:00
3:53 AM,43.0,25.0,49,29.68,10.0,SSW,13.8,-,N/A,,Clear,210,2014-03-14 08:53:00
4:53 AM,45.0,24.1,44,29.67,10.0,SW,17.3,-,N/A,,Clear,220,2014-03-14 09:53:00
5:53 AM,43.0,25.0,49,29.67,10.0,SSW,15.0,-,N/A,,Clear,210,2014-03-14 10:53:00
6:53 AM,43.0,24.1,47,29.68,10.0,SW,17.3,-,N/A,,Clear,230,2014-03-14 11:53:00
7:53 AM,41.0,26.1,55,29.73,10.0,West,12.7,-,N/A,,Clear,280,2014-03-14 12:53:00
8:53 AM,43.0,28.0,56,29.78,10.0,NW,17.3,21.9,N/A,,Clear,320,2014-03-14 13:53:00
9:53 AM,46.9,30.0,52,29.82,10.0,NW,15.0,-,N/A,,Clear,320,2014-03-14 14:53:00
10:53 AM,50.0,30.9,48,29.85,10.0,NW,19.6,-,N/A,,Clear,320,2014-03-14 15:53:00
11:53 AM,52.0,30.9,45,29.86,10.0,WNW,23.0,32.2,N/A,,Clear,300,2014-03-14 16:53:00
12:53 PM,54.0,30.9,41,29.88,10.0,WNW,20.7,33.4,N/A,,Clear,300,2014-03-14 17:53:00
1:53 PM,55.0,25.0,31,29.88,10.0,WNW,23.0,29.9,N/A,,Clear,290,2014-03-14 18:53:00
2:53 PM,55.0,23.0,29,29.88,10.0,WNW,24.2,34.5,N/A,,Clear,300,2014-03-14 19:53:00
3:53 PM,55.0,24.1,30,29.89,10.0,WNW,23.0,35.7,N/A,,Clear,300,2014-03-14 20:53:00
4:53 PM,55.0,21.0,27,29.90,10.0,NW,20.7,-,N/A,,Clear,320,2014-03-14 21:53:00
5:53 PM,53.1,21.9,30,29.91,10.0,NW,15.0,-,N/A,,Clear,310,2014-03-14 22:53:00
6:53 PM,50.0,21.0,32,29.94,10.0,WNW,12.7,-,N/A,,Clear,300,2014-03-14 23:53:00
7:53 PM,44.1,19.9,38,29.96,10.0,WNW,6.9,-,N/A,,Clear,300,2014-03-15 00:53:00
8:53 PM,41.0,21.9,47,29.97,10.0,WNW,6.9,-,N/A,,Clear,290,2014-03-15 01:53:00
9:53 PM,41.0,21.0,45,29.98,10.0,WSW,5.8,-,N/A,,Clear,240,2014-03-15 02:53:00
10:53 PM,42.1,21.0,43,29.99,10.0,West,5.8,-,N/A,,Clear,260,2014-03-15 03:53:00
11:53 PM,39.0,21.0,49,29.99,10.0,SW,5.8,-,N/A,,Clear,220,2014-03-15 04:53:00